GW3738 Weather Reports


Display with metric or nautical units.
time (UTC)temp
F
wind
direction
speed
MPH
gust
MPH
rain 1hr
in
rain 24hr
in
rain mn
in
humidity
%
barometer
mb
20260906145211 73 139 0.0 0.0 0.00 0.00 0.00 84 1019.1
20260906144706 73 160 2.0 2.0 0.00 0.00 0.00 83 1019.1
20260906144202 73 126 0.0 0.0 0.00 0.00 0.00 84 1019.2
20260906143700 72 136 1.0 2.0 0.00 0.00 0.00 86 1019.2
20260906143158 71 118 0.0 0.0 0.00 0.00 0.00 86 1019.1
20260906142652 71 155 1.0 2.0 0.00 0.00 0.00 86 1019.0
20260906142147 72 146 1.0 2.0 0.00 0.00 0.00 85 1019.2
20260906141646 70 145 0.0 0.0 0.00 0.00 0.00 88 1019.2
20260906141141 68 134 0.0 0.0 0.00 0.00 0.00 91 1019.1
20260906140640 67 144 0.0 0.0 0.00 0.00 0.00 95 1019.4
20260906140135 66 132 0.0 0.0 0.00 0.00 0.00 96 1019.4
20260906135632 66 120 0.0 0.0 0.00 0.00 0.00 96 1019.3
20260906135128 66 121 1.0 2.0 0.00 0.00 0.00 96 1019.4
20260906134624 65 142 0.0 0.0 0.00 0.00 0.00 96 1019.3
20260906134119 65 126 0.0 0.0 0.00 0.00 0.00 96 1019.3
20260906133614 64 114 0.0 0.0 0.00 0.00 0.00 96 1019.4
20260906133109 64 93 3.0 4.0 0.00 0.00 0.00 96 1019.2
20260906132604 64 135 0.0 0.0 0.00 0.00 0.00 96 1019.1
20260906132059 64 135 0.0 0.0 0.00 0.00 0.00 96 1019.2
20260906131554 64 148 0.0 1.0 0.00 0.00 0.00 96 1019.2
20260906131050 63 109 0.0 0.0 0.00 0.00 0.00 96 1018.9
20260906130544 63 125 1.0 1.0 0.00 0.00 0.00 96 1019.2
20260906130039 63 107 0.0 0.0 0.00 0.00 0.00 96 1019.0
20260906125536 63 144 0.0 0.0 0.00 0.00 0.00 96 1019.0
20260906125031 63 150 0.0 0.0 0.00 0.00 0.00 96 1019.1
20260906124526 63 167 0.0 0.0 0.00 0.00 0.00 96 1019.2
20260906124021 63 169 0.0 0.0 0.00 0.00 0.00 96 1019.0
20260906123520 63 169 0.0 0.0 0.00 0.00 0.00 96 1019.0
20260906123015 63 169 0.0 0.0 0.00 0.00 0.00 96 1018.9
20260906122509 63 169 0.0 0.0 0.00 0.00 0.00 96 1018.7
20260906122006 63 169 0.0 0.0 0.00 0.00 0.00 96 1018.7
20260906121501 62 169 0.0 0.0 0.00 0.00 0.00 96 1018.7
20260906120958 62 169 0.0 0.0 0.00 0.00 0.00 96 1018.8
20260906120453 61 169 0.0 0.0 0.00 0.00 0.00 96 1018.6
20260906115949 61 169 0.0 0.0 0.00 0.00 0.00 96 1018.7
20260906115444 61 169 0.0 0.0 0.00 0.00 0.00 96 1018.6
20260906114944 61 169 0.0 0.0 0.00 0.00 0.00 96 1018.6
20260906114438 61 169 0.0 0.0 0.00 0.00 0.00 96 1018.5
20260906113935 61 169 0.0 0.0 0.00 0.00 0.00 96 1018.6
20260906113433 61 169 0.0 0.0 0.00 0.00 0.00 96 1018.7
20260906112929 61 169 0.0 0.0 0.00 0.00 0.00 96 1018.5
20260906112424 62 169 0.0 0.0 0.00 0.00 0.00 96 1018.4
20260906111920 62 170 0.0 0.0 0.00 0.00 0.00 96 1018.6
20260906111419 62 170 0.0 0.0 0.00 0.00 0.00 96 1018.8
20260906110914 62 170 0.0 0.0 0.00 0.00 0.00 96 1018.7
20260906110409 62 170 1.0 1.0 0.00 0.00 0.00 96 1018.3
20260906105909 62 148 0.0 0.0 0.00 0.00 0.00 96 1018.2
20260906105405 62 148 0.0 0.0 0.00 0.00 0.00 96 1018.1
20260906104901 62 148 0.0 0.0 0.00 0.00 0.00 96 1017.6
20260906104359 61 148 0.0 0.0 0.00 0.00 0.00 96 1017.5
20260906103858 61 148 0.0 0.0 0.00 0.00 0.00 96 1017.5
20260906103356 61 147 0.0 0.0 0.00 0.00 0.00 96 1017.5
20260906102852 61 148 0.0 0.0 0.00 0.00 0.00 96 1017.7
20260906102351 62 149 0.0 0.0 0.00 0.00 0.00 96 1017.6
20260906101846 62 149 0.0 0.0 0.00 0.00 0.00 96 1017.7
20260906101342 63 149 0.0 0.0 0.00 0.00 0.00 96 1017.6
20260906100837 63 149 0.0 0.0 0.00 0.00 0.00 96 1017.6
20260906100336 63 149 0.0 0.0 0.00 0.00 0.00 96 1017.5
20260906095831 63 149 0.0 0.0 0.00 0.00 0.00 96 1017.7
20260906095327 63 149 0.0 0.0 0.00 0.00 0.00 96 1017.4
20260906094826 63 149 0.0 0.0 0.00 0.00 0.00 96 1017.7
20260906094321 63 149 0.0 0.0 0.00 0.00 0.00 96 1017.7
20260906093817 64 149 0.0 0.0 0.00 0.00 0.00 96 1017.8
20260906093313 63 149 0.0 0.0 0.00 0.00 0.00 96 1017.9
20260906092807 63 148 0.0 0.0 0.00 0.00 0.00 96 1018.0
20260906092301 63 148 0.0 0.0 0.00 0.00 0.00 96 1017.8
20260906091757 63 149 0.0 0.0 0.00 0.00 0.00 96 1017.8
20260906091253 64 148 0.0 0.0 0.00 0.00 0.00 96 1017.6
20260906090749 64 148 0.0 0.0 0.00 0.00 0.00 96 1017.7
20260906090248 64 148 0.0 0.0 0.00 0.00 0.00 96 1017.6
20260906085748 64 148 0.0 0.0 0.00 0.00 0.00 96 1017.7
20260906085242 64 151 0.0 0.0 0.00 0.00 0.00 96 1017.7
20260906084736 64 151 0.0 0.0 0.00 0.00 0.00 96 1017.8
20260906084236 64 151 0.0 0.0 0.00 0.00 0.00 96 1017.8
20260906083731 64 151 0.0 0.0 0.00 0.00 0.00 96 1017.7
20260906083226 64 151 0.0 0.0 0.00 0.00 0.00 96 1017.6
20260906082721 64 154 0.0 0.0 0.00 0.00 0.00 96 1017.6
20260906082211 64 180 0.0 0.0 0.00 0.00 0.00 96 1017.6
20260906081707 64 180 0.0 0.0 0.00 0.00 0.00 96 1017.7
20260906081156 64 180 0.0 0.0 0.00 0.00 0.00 96 1017.7
20260906080653 64 180 0.0 0.0 0.00 0.00 0.00 96 1017.7
20260906080148 64 179 0.0 0.0 0.00 0.00 0.00 96 1017.6
20260906075642 64 180 0.0 0.0 0.00 0.00 0.00 96 1017.8
20260906075137 64 180 0.0 0.0 0.00 0.00 0.00 96 1017.7
20260906074632 64 179 0.0 0.0 0.00 0.00 0.00 96 1017.7
20260906074131 64 180 0.0 0.0 0.00 0.00 0.00 96 1017.5
20260906073626 65 180 0.0 0.0 0.00 0.00 0.00 96 1017.7
20260906073122 65 180 0.0 0.0 0.00 0.00 0.00 96 1017.7
20260906072617 65 180 0.0 0.0 0.00 0.00 0.00 96 1017.6
20260906072112 65 180 0.0 0.0 0.00 0.00 0.00 96 1017.8
20260906071608 65 180 0.0 0.0 0.00 0.00 0.00 96 1017.9
20260906071103 65 180 0.0 0.0 0.00 0.00 0.00 96 1017.9
20260906070600 65 180 0.0 0.0 0.00 0.00 0.00 96 1017.7
20260906070054 65 180 0.0 0.0 0.00 0.00 0.00 96 1017.9
20260906065554 65 180 0.0 0.0 0.00 0.00 0.00 96 1017.9
20260906065050 65 180 0.0 0.0 0.00 0.00 0.00 96 1017.9
20260906064545 65 180 1.0 1.0 0.00 0.00 0.00 96 1017.9
20260906064035 65 178 0.0 0.0 0.00 0.00 0.00 96 1017.8
20260906063530 65 178 0.0 0.0 0.00 0.00 0.00 96 1017.7
20260906063026 65 179 0.0 1.0 0.00 0.00 0.00 96 1017.9
20260906062521 65 178 0.0 1.0 0.00 0.00 0.00 96 1017.8
20260906062015 65 175 0.0 0.0 0.00 0.00 0.00 96 1017.6
20260906061511 65 175 0.0 0.0 0.00 0.00 0.00 96 1017.7
20260906061005 65 175 0.0 0.0 0.00 0.00 0.00 96 1017.9
20260906060502 65 174 0.0 0.0 0.00 0.00 0.00 96 1017.9
20260906055958 66 176 0.0 0.0 0.00 0.00 0.00 96 1018.0
20260906055454 66 176 0.0 0.0 0.00 0.00 0.00 96 1017.7
20260906054949 66 175 0.0 0.0 0.00 0.00 0.00 96 1017.8
20260906054449 66 166 0.0 0.0 0.00 0.00 0.00 96 1017.9
20260906053944 66 165 0.0 0.0 0.00 0.00 0.00 96 1017.9
20260906053441 66 165 0.0 0.0 0.00 0.00 0.00 96 1017.7
20260906052936 66 165 0.0 0.0 0.00 0.00 0.00 96 1017.7
20260906052432 67 165 0.0 0.0 0.00 0.00 0.00 96 1017.6
20260906051929 66 153 0.0 0.0 0.00 0.00 0.00 96 1017.7
20260906051424 67 148 0.0 0.0 0.00 0.00 0.00 96 1017.7
20260906050920 67 139 0.0 1.0 0.00 0.00 0.00 96 1017.5
20260906050419 67 150 0.0 0.0 0.00 0.00 0.00 96 1017.6
20260906045919 67 147 0.0 0.0 0.00 0.01 0.01 96 1017.6
20260906045418 67 91 1.0 1.0 0.00 0.01 0.01 96 1017.6
20260906044914 67 141 0.0 0.0 0.00 0.01 0.01 96 1017.8
20260906044413 67 123 0.0 0.0 0.00 0.01 0.01 96 1017.8
20260906043909 67 129 0.0 0.0 0.00 0.01 0.01 96 1017.7
20260906043405 67 132 0.0 0.0 0.00 0.01 0.01 96 1017.7
20260906042900 68 141 0.0 0.0 0.00 0.01 0.01 96 1017.5
20260906042359 68 119 0.0 0.0 0.00 0.01 0.01 96 1017.6
20260906041854 68 135 0.0 0.0 0.00 0.01 0.01 96 1017.2
20260906041350 68 140 0.0 0.0 0.00 0.01 0.01 96 1017.6
20260906040845 68 127 0.0 1.0 0.00 0.01 0.01 96 1017.5
20260906040341 68 107 1.0 1.0 0.00 0.01 0.01 96 1017.3
20260906035836 68 117 1.0 1.0 0.00 0.01 0.01 96 1017.1
20260906035331 68 134 0.0 0.0 0.00 0.01 0.01 96 1017.1
20260906034826 69 139 0.0 0.0 0.00 0.01 0.01 96 1017.3
20260906034321 69 142 0.0 0.0 0.00 0.01 0.01 96 1017.0
20260906033817 69 110 0.0 0.0 0.00 0.01 0.01 96 1016.9
20260906033316 69 111 0.0 0.0 0.00 0.01 0.01 96 1017.0
20260906032813 69 145 0.0 0.0 0.00 0.01 0.01 96 1016.8
20260906032308 69 104 0.0 0.0 0.00 0.01 0.01 96 1016.9
20260906031803 69 145 0.0 0.0 0.00 0.01 0.01 96 1016.8
20260906031259 69 101 0.0 1.0 0.00 0.01 0.01 96 1016.8
20260906030758 70 117 0.0 0.0 0.00 0.01 0.01 96 1016.7
20260906030254 70 68 0.0 1.0 0.00 0.01 0.01 95 1016.9
20260906025753 70 38 0.0 1.0 0.00 0.01 0.01 95 1016.6
20260906025248 70 59 0.0 1.0 0.00 0.01 0.01 95 1016.5
20260906024747 70 97 0.0 1.0 0.00 0.01 0.01 95 1016.5
20260906024246 70 107 0.0 1.0 0.00 0.01 0.01 95 1016.4
20260906023741 70 77 1.0 2.0 0.00 0.01 0.01 95 1016.5
20260906023237 70 102 1.0 1.0 0.00 0.01 0.01 94 1016.5
20260906022732 70 99 0.0 0.0 0.00 0.01 0.01 94 1016.5
20260906022227 70 110 0.0 0.0 0.00 0.01 0.01 94 1016.3
20260906021723 71 77 2.0 2.0 0.00 0.01 0.01 94 1016.0
20260906021222 71 114 0.0 0.0 0.00 0.01 0.01 94 1015.9
20260906020717 71 100 1.0 2.0 0.00 0.01 0.01 93 1016.0
20260906020212 71 60 2.0 3.0 0.00 0.01 0.01 94 1015.7
20260906015712 71 181 0.0 1.0 0.00 0.01 0.01 93 1015.9
20260906015205 71 157 0.0 1.0 0.00 0.01 0.01 93 1015.8
20260906014705 71 71 1.0 1.0 0.00 0.01 0.01 93 1015.5
20260906014200 71 66 1.0 1.0 0.00 0.01 0.01 93 1015.8
20260906013656 71 100 0.0 0.0 0.00 0.01 0.01 93 1015.7
20260906013151 71 82 0.0 1.0 0.00 0.01 0.01 93 1015.5
20260906012646 72 127 1.0 1.0 0.00 0.01 0.01 92 1015.4
20260906012146 72 133 0.0 1.0 0.00 0.01 0.01 92 1015.4
20260906011642 72 81 0.0 0.0 0.00 0.01 0.01 91 1015.4
20260906011142 72 124 0.0 0.0 0.00 0.01 0.01 92 1015.0
20260906010637 72 75 1.0 2.0 0.00 0.01 0.01 91 1015.4
20260906010133 72 59 1.0 2.0 0.00 0.01 0.01 91 1015.3
20260906005632 72 127 0.0 1.0 0.00 0.01 0.01 91 1015.2
20260906005127 72 93 0.0 1.0 0.00 0.01 0.01 91 1015.3
20260906004626 73 119 0.0 0.0 0.00 0.01 0.01 91 1015.1
20260906004121 73 95 0.0 1.0 0.00 0.01 0.01 90 1015.3
20260906003616 73 87 1.0 1.0 0.00 0.01 0.01 90 1015.4
20260906003112 73 50 2.0 2.0 0.00 0.01 0.01 90 1015.3
20260906002606 73 85 0.0 1.0 0.00 0.01 0.01 90 1015.6
20260906002101 73 123 0.0 1.0 0.00 0.01 0.01 91 1015.7
20260906001551 73 78 1.0 2.0 0.00 0.01 0.01 91 1015.5
20260906001051 73 137 0.0 0.0 0.00 0.01 0.01 91 1015.7
20260906000547 73 118 0.0 1.0 0.00 0.01 0.01 91 1015.7
20260906000042 73 129 1.0 1.0 0.00 0.01 0.01 90 1015.6
20260905235536 73 153 0.0 0.0 0.00 0.01 0.01 91 1015.7
20260905235031 73 152 1.0 1.0 0.00 0.01 0.01 90 1015.7
20260905234527 73 146 0.0 0.0 0.00 0.01 0.01 90 1015.6
20260905234026 73 159 0.0 0.0 0.00 0.01 0.01 90 1015.7
20260905233521 73 155 0.0 0.0 0.00 0.01 0.01 90 1015.5
20260905233021 73 157 0.0 0.0 0.00 0.01 0.01 89 1015.6
20260905232516 73 160 0.0 0.0 0.00 0.01 0.01 89 1015.3
20260905232012 73 153 0.0 0.0 0.00 0.01 0.01 90 1015.6
20260905231507 74 158 0.0 1.0 0.00 0.01 0.01 89 1015.5
20260905231003 74 196 0.0 1.0 0.00 0.01 0.01 87 1015.6
20260905230502 74 191 0.0 0.0 0.00 0.01 0.01 87 1015.8
20260905230000 75 158 0.0 0.0 0.00 0.01 0.01 85 1015.7
20260905225455 75 187 0.0 0.0 0.00 0.01 0.01 86 1015.7
20260905224950 76 181 0.0 0.0 0.00 0.01 0.01 85 1015.7
20260905224446 76 175 0.0 0.0 0.00 0.01 0.01 84 1015.7
20260905223944 77 172 0.0 0.0 0.00 0.01 0.01 83 1015.9
20260905223443 77 155 0.0 0.0 0.00 0.01 0.01 82 1015.9
20260905222938 78 191 1.0 1.0 0.00 0.01 0.01 82 1015.9
20260905222438 78 140 0.0 1.0 0.00 0.01 0.01 80 1015.8
20260905221933 78 177 2.0 2.0 0.00 0.01 0.01 80 1015.7
20260905221429 78 163 1.0 1.0 0.00 0.01 0.01 78 1015.7
20260905220926 78 94 2.0 2.0 0.00 0.01 0.01 78 1015.5
20260905220421 79 92 1.0 1.0 0.00 0.01 0.01 79 1015.7
20260905215920 79 102 0.0 1.0 0.00 0.01 0.01 77 1015.7
20260905215416 79 196 1.0 1.0 0.00 0.01 0.01 76 1015.7
20260905214912 79 174 0.0 0.0 0.00 0.01 0.01 77 1015.4
20260905214408 79 166 1.0 1.0 0.00 0.01 0.01 76 1015.5
20260905213907 79 220 1.0 1.0 0.00 0.01 0.01 77 1015.5
20260905213404 79 72 3.0 3.0 0.00 0.01 0.01 77 1015.5
20260905212859 78 87 3.0 3.0 0.00 0.01 0.01 77 1015.3
20260905212354 78 66 0.0 0.0 0.00 0.01 0.01 79 1015.5
20260905211847 78 132 0.0 0.0 0.00 0.01 0.01 80 1015.4
20260905211343 78 100 0.0 0.0 0.00 0.01 0.01 81 1015.6
20260905210839 78 89 2.0 3.0 0.00 0.01 0.01 77 1015.6
20260905210334 80 88 0.0 1.0 0.00 0.01 0.01 78 1015.5
20260905205832 78 30 1.0 2.0 0.00 0.01 0.01 80 1015.6
20260905205327 79 101 2.0 2.0 0.00 0.01 0.01 79 1015.8
20260905204826 79 83 1.0 2.0 0.00 0.01 0.01 80 1015.6
20260905204322 80 125 1.0 1.0 0.00 0.01 0.01 79 1015.7
20260905203821 78 34 2.0 3.0 0.00 0.01 0.01 82 1015.7
20260905203317 78 74 0.0 1.0 0.00 0.01 0.01 84 1015.7
20260905202812 78 120 0.0 0.0 0.00 0.01 0.01 83 1015.8
20260905202307 78 47 1.0 1.0 0.00 0.01 0.01 82 1015.8
20260905201757 78 103 0.0 0.0 0.00 0.01 0.01 83 1016.0
20260905201252 78 109 2.0 3.0 0.00 0.01 0.01 82 1015.9
20260905200747 78 28 3.0 4.0 0.00 0.01 0.01 83 1015.6
20260905200243 78 97 0.0 0.0 0.00 0.01 0.01 84 1015.7
20260905195741 78 163 0.0 0.0 0.00 0.01 0.01 84 1015.5
20260905195236 78 79 1.0 2.0 0.00 0.01 0.01 83 1015.7
20260905194731 78 135 0.0 1.0 0.00 0.01 0.01 83 1015.5
20260905194225 79 81 1.0 2.0 0.00 0.01 0.01 82 1015.4
20260905193725 78 101 0.0 0.0 0.00 0.01 0.01 85 1015.7
20260905193220 78 86 0.0 0.0 0.00 0.01 0.01 84 1015.8
20260905192715 79 96 4.0 7.0 0.00 0.01 0.01 82 1015.5
20260905192212 79 130 1.0 1.0 0.00 0.01 0.01 83 1015.6
20260905191711 78 47 3.0 3.0 0.00 0.01 0.01 82 1015.6
20260905191209 78 138 0.0 0.0 0.00 0.01 0.01 83 1015.9
20260905190708 78 118 0.0 1.0 0.00 0.01 0.01 82 1015.7
20260905190207 79 247 0.0 1.0 0.00 0.01 0.01 81 1015.7
20260905185701 79 65 2.0 3.0 0.00 0.01 0.01 82 1015.6
20260905185201 78 119 1.0 2.0 0.00 0.01 0.01 83 1015.9
20260905184700 79 131 0.0 0.0 0.00 0.01 0.01 83 1015.8
20260905184159 77 169 0.0 0.0 0.00 0.01 0.01 84 1016.0
20260905183654 77 149 0.0 1.0 0.00 0.01 0.01 85 1015.9
20260905183149 77 180 0.0 0.0 0.00 0.01 0.01 86 1015.9
20260905182648 77 86 0.0 0.0 0.00 0.01 0.01 86 1016.3
20260905182143 77 214 0.0 1.0 0.00 0.01 0.01 87 1016.3
20260905181638 76 173 0.0 0.0 0.00 0.01 0.01 89 1016.3
20260905181137 75 176 0.0 0.0 0.00 0.01 0.01 90 1016.3
20260905180632 75 68 2.0 2.0 0.00 0.01 0.01 90 1016.3
20260905180127 75 166 1.0 1.0 0.00 0.01 0.01 90 1016.3
20260905175626 75 87 1.0 2.0 0.00 0.01 0.01 90 1016.3
20260905175122 75 101 0.0 1.0 0.00 0.01 0.01 90 1016.0
20260905174617 75 134 0.0 0.0 0.00 0.01 0.01 90 1016.3
20260905174112 74 147 0.0 0.0 0.00 0.01 0.01 91 1016.1
20260905173608 74 116 1.0 1.0 0.00 0.01 0.01 91 1016.1
20260905173103 73 127 0.0 0.0 0.00 0.01 0.01 94 1016.3
20260905172602 72 159 0.0 0.0 0.00 0.01 0.01 95 1016.3
20260905172057 72 46 0.0 1.0 0.00 0.01 0.01 95 1016.5
20260905171554 73 7 1.0 2.0 0.00 0.01 0.01 95 1016.4
20260905171049 73 145 0.0 0.0 0.00 0.01 0.01 95 1016.5
20260905170546 73 121 0.0 0.0 0.00 0.01 0.01 95 1016.5
20260905170041 72 153 1.0 1.0 0.00 0.01 0.01 94 1016.5
20260905165536 73 162 0.0 0.0 0.00 0.01 0.01 95 1016.3
20260905165032 72 125 0.0 1.0 0.00 0.01 0.01 95 1016.7
20260905164526 72 102 1.0 1.0 0.00 0.01 0.01 95 1016.4
20260905164020 73 119 0.0 0.0 0.00 0.01 0.01 95 1016.7
20260905163511 72 165 0.0 0.0 0.00 0.01 0.01 96 1016.7
20260905163007 72 37 1.0 2.0 0.00 0.01 0.01 96 1016.8
20260905162502 72 131 0.0 1.0 0.00 0.01 0.01 96 1016.5
20260905161956 71 66 0.0 2.0 0.00 0.01 0.01 96 1016.5
20260905161455 71 141 0.0 0.0 0.00 0.01 0.01 96 1016.5
20260905160954 71 127 1.0 1.0 0.00 0.01 0.01 96 1016.6
20260905160448 71 133 0.0 0.0 0.00 0.01 0.01 96 1016.5
20260905155947 71 53 0.0 1.0 0.00 0.01 0.01 96 1016.4
20260905155442 71 105 0.0 0.0 0.00 0.01 0.01 96 1016.3
20260905154941 71 91 0.0 1.0 0.00 0.01 0.01 96 1016.3
20260905154436 71 357 1.0 2.0 0.00 0.01 0.01 96 1016.3
20260905153932 72 98 0.0 1.0 0.00 0.01 0.01 96 1016.0
20260905153428 71 150 0.0 0.0 0.00 0.01 0.01 96 1016.1
20260905152927 71 131 1.0 1.0 0.00 0.01 0.01 96 1016.1
20260905152427 71 118 0.0 0.0 0.00 0.01 0.01 96 1015.9
20260905151922 71 143 0.0 0.0 0.00 0.01 0.01 96 1015.9
20260905151418 71 81 0.0 0.0 0.00 0.01 0.01 96 1016.0
20260905150919 71 111 1.0 1.0 0.00 0.01 0.01 96 1016.0
20260905150419 72 117 0.0 0.0 0.00 0.01 0.01 96 1015.6
20260905145915 72 166 0.0 0.0 0.00 0.01 0.01 96 1016.1